Content
SEND FEEDBACK

Daily
Averages
Monthly
Summary
United States of America

HILLSBORO, TEXAS


Home > North America > United States > Texas
Elevation: 195 meters     Latitude: 32 01N     Longitude: 097 07W

WEATHER
 
SELECT A DAY
Number of Records: 248,068;   Date Range: 10/30/03 - 7/7/14
 
SHARE

PRINT THIS DATA

[ ← Previous Day ]
WEATHER ALMANAC - 3 JANUARY, 2013
[ Next Day → ]
[ °F ]   °C
Weather ElementAverageHighLow
Temperature3.4 °C8 °C (12:15 pm)-4 °C (2:15 am)
Dewpoint-2.3 °C0 °C (9:55 am)-6 °C (1:55 am)
Humidity68.2 %93 % (2:55 am)46 % (2:55 pm)
Barometer1029.8 hPa1031.8 hPa (10:15 am)1027.1 hPa (1:15 am)
Wind Speed11.4 km/h24.1 km/h (9:15 am)
Wind Gust35.2 km/h (11:55 am)
Weather ElementAverage
Visibility14.8 km
Wind DirectionSSW (200.4 °)

Weather ElementTotal
Precipitation---
Heating Degree Days16.3 (Base 18.3)
Averaged from 70 records on 3 January, 2013
WEATHER CONDITIONS BREAKOUT
WIND DIRECTION BREAKOUT
WEATHER BY HOUR - 3 JANUARY, 2013
[ °F ]   °C
Local TimeTemperatureDewpointHumidityBarometerVisibilityWind DirectionWind SpeedGust SpeedPrecipitationEventsConditions
12:35 AM-3 °C-5 °C86 %1027.8 hPa11.3 kmCalmClear
12:55 AM-2 °C-5 °C80 %1027.8 hPa8 kmCalmClear
1:15 AM-1 °C-3 °C86 %1027.1 hPa11.3 kmCalmClear
1:35 AM-2 °C-4 °C86 %1027.4 hPa11.3 kmCalmClear
1:55 AM-3 °C-6 °C80 %1027.8 hPa11.3 kmCalmClear
2:15 AM-4 °C-6 °C86 %1027.8 hPa8 kmCalmClear
2:35 AM-3 °C-5 °C86 %1027.8 hPa8 kmCalmClear
2:55 AM-2 °C-3 °C93 %1027.8 hPa11.3 kmCalmClear
3:15 AM-2 °C-4 °C86 %1028.1 hPa11.3 kmNNW (340°)5.6 km/hClear
3:35 AM-2 °C-4 °C86 %1028.1 hPa11.3 kmNorth (350°)7.4 km/hClear
3:55 AM-2 °C-5 °C80 %1028.4 hPa11.3 kmNorth (360°)7.4 km/hClear
4:15 AM-2 °C-4 °C86 %1028.1 hPa11.3 kmNorth (350°)13 km/hClear
4:35 AM-2 °C-5 °C80 %1028.4 hPa11.3 kmNNW (340°)9.3 km/hClear
4:55 AM-2 °C-5 °C80 %1028.1 hPa11.3 kmNorth (350°)11.1 km/hClear
5:15 AM-2 °C-5 °C80 %1027.8 hPa11.3 kmNNW (340°)14.8 km/hClear
5:35 AM-2 °C-4 °C86 %1028.4 hPa16.1 kmNNW (340°)13 km/hClear
5:55 AM-2 °C-4 °C86 %1028.8 hPa16.1 kmNorth (350°)11.1 km/hClear
6:15 AM-2 °C-4 °C86 %1029.1 hPa16.1 kmNorth (360°)14.8 km/hClear
6:35 AM-1 °C-3 °C86 %1029.1 hPa16.1 kmNorth (360°)14.8 km/hClear
6:55 AM-1 °C-3 °C86 %1029.5 hPa16.1 kmNorth (360°)16.7 km/hClear
7:15 AM-1 °C-3 °C86 %1029.8 hPa16.1 kmNorth (350°)16.7 km/hClear
7:35 AM-1 °C-3 °C86 %1030.1 hPa16.1 kmNorth (350°)14.8 km/hClear
7:55 AM-1 °C-3 °C86 %1030.1 hPa11.3 kmNorth (360°)14.8 km/hClear
8:15 AM0 °C-2 °C87 %1030.1 hPa16.1 kmNorth (350°)18.5 km/hClear
8:35 AM0 °C-2 °C87 %1030.5 hPa16.1 kmNorth (350°)20.4 km/hClear
8:55 AM1 °C-1 °C87 %1030.8 hPa16.1 kmNorth (350°)20.4 km/hClear
9:15 AM1 °C-1 °C87 %1030.5 hPa16.1 kmNorth (360°)24.1 km/h29.6 km/hClear
9:35 AM2 °C-1 °C81 %1030.5 hPa16.1 kmNorth (360°)20.4 km/h29.6 km/hClear
9:55 AM3 °C0 °C81 %1031.5 hPa16.1 kmNorth (360°)18.5 km/h27.8 km/hClear
10:15 AM3 °C-1 °C75 %1031.8 hPa16.1 kmNorth (10°)13 km/h25.9 km/hClear
10:35 AM5 °C0 °C70 %1031.5 hPa16.1 kmNNE (20°)14.8 km/hClear
10:55 AM6 °C0 °C66 %1031.2 hPa16.1 kmNorth (360°)22.2 km/h31.5 km/hClear
11:15 AM6 °C0 °C66 %1030.8 hPa16.1 kmNorth (350°)22.2 km/hClear
11:35 AM7 °C0 °C61 %1030.5 hPa16.1 kmNorth (360°)20.4 km/h33.3 km/hClear
11:55 AM7 °C-1 °C57 %1030.1 hPa16.1 kmNorth (350°)24.1 km/h35.2 km/hClear
12:15 PM8 °C-1 °C53 %1029.8 hPa16.1 kmNNW (340°)16.7 km/h25.9 km/hClear
12:35 PM8 °C-1 °C53 %1029.8 hPa16.1 kmNNE (20°)14.8 km/hClear
12:55 PM8 °C-2 °C50 %1029.5 hPa16.1 kmNNW (340°)13 km/h25.9 km/hClear
1:15 PM8 °C-2 °C50 %1029.5 hPa16.1 kmNorth (10°)14.8 km/hClear
1:35 PM8 °C-2 °C50 %1029.5 hPa16.1 kmNorth (350°)14.8 km/hClear
1:55 PM8 °C-2 °C50 %1029.5 hPa16.1 kmNorth (10°)13 km/hClear
2:15 PM8 °C-2 °C50 %1029.1 hPa16.1 kmNNE (20°)13 km/hClear
2:35 PM8 °C-2 °C50 %1029.5 hPa16.1 kmNorth (360°)16.7 km/hClear
2:55 PM8 °C-3 °C46 %1029.5 hPa16.1 kmNW (320°)13 km/hClear
3:15 PM8 °C-2 °C50 %1029.5 hPa16.1 kmNNW (330°)11.1 km/hClear
3:55 PM8 °C-2 °C50 %1029.8 hPa16.1 kmNW (320°)11.1 km/hClear
4:15 PM8 °C-3 °C46 %1029.8 hPa16.1 kmNW (320°)11.1 km/hClear
4:35 PM8 °C-2 °C50 %1029.8 hPa16.1 kmNNW (340°)13 km/hClear
4:55 PM8 °C-2 °C50 %1029.8 hPa16.1 kmNNW (340°)9.3 km/hScattered Clouds
5:15 PM7 °C-2 °C53 %1030.1 hPa16.1 kmNNW (340°)11.1 km/hScattered Clouds
5:35 PM7 °C-2 °C53 %1030.1 hPa16.1 kmNNW (330°)9.3 km/hMostly Cloudy
5:55 PM7 °C-2 °C53 %1030.5 hPa16.1 kmNNW (340°)9.3 km/hOvercast
6:15 PM7 °C-2 °C53 %1030.5 hPa16.1 kmNorth (350°)9.3 km/hScattered Clouds
6:35 PM6 °C-2 °C57 %1030.5 hPa16.1 kmNorth (10°)7.4 km/hScattered Clouds
6:55 PM6 °C-2 °C57 %1030.5 hPa16.1 kmNorth (10°)7.4 km/hMostly Cloudy
7:15 PM6 °C-2 °C57 %1030.8 hPa16.1 kmNNE (20°)7.4 km/hMostly Cloudy
7:35 PM6 °C-2 °C57 %1030.8 hPa16.1 kmNNE (30°)9.3 km/hMostly Cloudy
7:55 PM6 °C-2 °C57 %1030.5 hPa16.1 kmNNE (30°)9.3 km/hMostly Cloudy
8:15 PM6 °C-2 °C57 %1030.5 hPa16.1 kmNNE (20°)9.3 km/hOvercast
8:35 PM6 °C-2 °C57 %1030.5 hPa16.1 kmNNE (30°)9.3 km/hOvercast
8:55 PM6 °C-1 °C61 %1030.5 hPa16.1 kmNNE (20°)9.3 km/hOvercast
9:15 PM6 °C-1 °C61 %1030.5 hPa16.1 kmNE (40°)7.4 km/hOvercast
9:35 PM6 °C-1 °C61 %1030.5 hPa16.1 kmNNE (30°)11.1 km/hOvercast
9:55 PM6 °C-1 °C61 %1030.5 hPa16.1 kmNNE (20°)9.3 km/hOvercast
10:15 PM6 °C-1 °C61 %1030.8 hPa16.1 kmNNE (20°)7.4 km/hOvercast
10:35 PM6 °C-1 °C61 %1030.8 hPa16.1 kmNNE (20°)9.3 km/hOvercast
10:55 PM6 °C-1 °C61 %1030.8 hPa16.1 kmNNE (20°)7.4 km/hOvercast
11:15 PM6 °C-1 °C61 %1030.5 hPa16.1 kmNNE (30°)9.3 km/hOvercast
11:35 PM6 °C-1 °C61 %1030.5 hPa16.1 kmNNE (30°)11.1 km/hOvercast
11:55 PM6 °C-1 °C61 %1030.1 hPa16.1 kmNNE (30°)11.1 km/hOvercast
Hourly data recorded from KINJ, located 0 kilometers away from Hillsboro, Texas







STORIES FROM OUR PARTNERS